Regional Weather Roundup
Issued by NWS Pendleton, OR

Home | Current Version | Previous Version | Text Only | Print | Product List | Glossary On
Versions: 1 2 3 4 5 6 7 8 9 10 11 12 13 14 15 16 17 18 19 20 21 22 23 24 25 26 27 28 29 30 31 32 33 34 35 36 37 38 39 40 41 42 43 44 45 46 47 48 49 50
256
ASUS46 KPDT 181125
RWRPDT
PENDLETON REGIONAL WEATHER ROUNDUP
NATIONAL WEATHER SERVICE PENDLETON OREGON
400 AM PDT THU JUL 18 2019

NOTE: FAIR INDICATES FEW OR NO CLOUDS BELOW 12,000 FEET WITH NO
SIGNIFICANT WEATHER AND/OR OBSTRUCTIONS TO VISIBILITY.

# INDICATES UNOFFICIAL STATION AND DATA

WAZ520-181210-
EAST SLOPES OF WASHINGTON CASCADES

CITY            SKY/WX      TMP DP  RH  WIND    PRES   REMARKS
#BULLFROG       N/A         55  48  77  W9      N/A
#ELK HTS DOT    N/A         54  54  100 W5      N/A
#GLENWOOD       N/A         59  53  80  S2      29.87R
#NELSON 3SW     N/A         52  47  83  CALM    30.05R
#TROUT LAKE 1NE N/A         58  53  83  NW2     29.88R
#TROUT LAKE 1E  N/A         53  51  93  CALM    29.96R
$$

WAZ521-181210-
SIMCOE HIGHLANDS

CITY            SKY/WX      TMP DP  RH  WIND    PRES   REMARKS
#SATUS PASS DOT N/A         58  45  62  N7      N/A
#CENTERVILLE 1SWN/A         59  53  80  W14     29.80R
#LYLE 6NE       N/A         61  56  84  W6      29.87R
#PITT 4SE       N/A         57  53  86  W9      29.88S
$$

WAZ026-181210-
KITTITAS VALLEY

CITY            SKY/WX      TMP DP  RH  WIND    PRES   REMARKS
ELLENSBURG AP   CLEAR       60  47  62  NW31G41 29.85R
#ELLENSBURG CWU N/A         58  49  72  W17     29.74S
#ELLENSBURG 3NE N/A         58  49  72  N17G30  27.94R
#ELLENSBURG 1E  N/A         59  50  72  W3      29.82S
#KITTITAS 3S    N/A         60  52  75  W7      29.79R
#MANASTASH RDG  N/A         55  49  80  N14     N/A
#ROCKY CYN DOT  N/A         56  50  80  NW15    N/A
#RYEGRASS DOT   N/A         57  48  72  CALM    N/A
#THORP 6N       N/A         58  51  77  CALM    29.72S
$$

WAZ027-181210-
YAKIMA VALLEY

CITY            SKY/WX      TMP DP  RH  WIND    PRES   REMARKS
SUNNYSIDE AP    CLEAR       57  54  90  N5      29.85R
YAKIMA AIRPORT  CLEAR       56  49  77  W3      29.85R
YAKIMA-VAGABOND CLEAR       64  45  50  W10     29.83R
#MABTON         N/A         64  53  67  SW2     29.83S
#NACHES 2SW     N/A         64  47  54  W9      29.85S
#OUTLOOK DOT    N/A         61  52  72  CALM    29.81R
#PARKER DOT     N/A         64  53  67  E1      29.83R
#TERRACE HTS    N/A         62  49  62  S5      29.76R
#TOPPENISH      N/A         66  53  63  CALM    29.72S
#I82 S UMTANUM RN/A         63  46  54  SW6     N/A
#ZILLAH DOT     N/A         63  53  70  NW2     N/A
$$

WAZ028-181210-
LOWER COLUMBIA BASIN...WASHINGTON

CITY            SKY/WX      TMP DP  RH  WIND    PRES   REMARKS
PASCO           CLEAR       67  56  68  SW8     29.84R
PROSSER AWOS    N/A         59  55  87  N5      29.88R
RICHLAND AWOS   CLEAR       66  57  73  S5      29.83R
#BASIN CITY 5SW N/A         63  55  75  SW1     29.80R
#BENTON CITY    N/A         61  54  78  NW2     29.70S
#CONNELL 5N     N/A         57  52  83  CALM    29.78S
#CONNELL 5NW    N/A         57  53  86  SW1     29.74S
#ELTOPIA 6NW    N/A         60  55  84  CALM    28.80S
#KENNEWICK 3S   N/A         63  56  78  S8      29.80R
#PROSSER DOT    N/A         60  54  81  CALM    29.84S
#SAGEMOOR 2W    N/A         61  55  81  SW2     29.66S
#TOUCHET 2S     N/A         67  56  68  SW12    29.80R
$$

WAZ029-181210-
FOOTHILLS OF THE BLUES...WASHINGTON

CITY            SKY/WX      TMP DP  RH  WIND    PRES   REMARKS
WALLA WALLA AP  CLOUDY      68  54  61  S12     29.88R
#CLYDE 6NW      N/A         61  55  81  S1      29.78S
#DELANEY DOT    N/A         67  54  63  SE10    29.85
#LOWDEN 2SE     N/A         67  57  70  W6      29.82R
#PRESCOTT       N/A         66  56  70  CALM    29.80R
#WALLA WALLA 5E N/A         67  56  68  SW9     N/A
#WALLA WALLA U  N/A         69  57  66  CALM    29.83R
$$

WAZ030-181210-
BLUE MOUNTAINS...WASHINGTON

CITY            SKY/WX      TMP DP  RH  WIND    PRES   REMARKS
#DIXIE 5SE      N/A         60  53  78  SW15G26 29.85R
$$

ORZ009-041-WAZ024-181210-
COLUMBIA RIVER GORGE

CITY            SKY/WX      TMP DP  RH  WIND    PRES   REMARKS
HOOD RIVER AP   RAIN        63  55  75  W10     29.93R
THE DALLES AP   CLEAR       67  57  70  W15     29.89S
#CELILO DOT     N/A         68  57  68  SW8     N/A
#LYLE           N/A         67  60  78  W9      29.89R
#MARYHILL       N/A         65  55  70  N12     29.76R
#RUFUS DOT      N/A         69  58  68  W16G24  N/A

$$

ORZ510-181210-
NORTH CENTRAL OREGON

CITY            SKY/WX      TMP DP  RH  WIND    PRES   REMARKS
#COW CYN RST AREN/A         61  52  72  SW8     N/A
#DUFUR          N/A         55  53  93  CALM    29.84S
#DUFUR 9E       N/A         57  55  93  CALM    29.91S
#GRASS VALLEY 1SN/A         60  55  84  CALM    30.09S
#KENT DOT       N/A         57  50  77  W2      N/A
#SHANIKO 5WSW   N/A         59  51  75  SW12    N/A
#TYGH VALLEY 2NEN/A         61  54  78  N1      29.85R
#WAPANITIA AIRPON/A         62  54  75  W3      29.87R
#WASCO 5NE      N/A         62  56  81  W16G24  29.83S
$$

ORZ511-181210-
CENTRAL OREGON

CITY            SKY/WX      TMP DP  RH  WIND    PRES   REMARKS
BEND AIRPORT    PTCLDY      57  52  83  CALM    30.00R
MADRAS AIRPORT  CLOUDY      55  52  90  SE6     29.99S
PRINEVILLE AP   CLOUDY      57  52  83  CALM    30.00R
REDMOND AIRPORT CLOUDY      58  49  72  CALM    29.99S
#ASHWOOD SCHOOL N/A         61  52  72  CALM    29.93S
#BEND-KIM LN    N/A         53  49  86  CALM    29.80F
#CULVER         N/A         60  53  78  S5      29.26S
#PRINEVILLE     N/A         57  52  83  CALM    29.94R
#WARM SPRINGS   N/A         58  51  77  CALM    29.75S

$$


ORZ509-181210-
EAST SLOPES OF OREGON CASCADES

CITY            SKY/WX      TMP DP  RH  WIND    PRES   REMARKS
SISTERS AWOS    N/A         61  52  72  W9      29.97S
#BLUE BOX PASS  N/A         52  N/A N/A NW6     N/A
#CAMP SHERMAN   N/A         58  52  80  CALM    29.91F
#LA PINE 4NW    N/A         56  49  77  CALM    29.93S
#LAVA BUTTE DOT N/A         56  49  77  CALM    N/A
#SISTERS ODOT   N/A         60  51  72  CALM    N/A
#TUMALO 3W      N/A         54  50  86  CALM    29.73R
#WANOGA BUTTE D N/A         50  46  86  NW17G29 N/A

$$

ORZ044-181210-
LOWER COLUMBIA BASIN...OREGON

CITY            SKY/WX      TMP DP  RH  WIND    PRES   REMARKS
HERMISTON       MOCLDY      69  56  63  SW17G30 29.85R
#BOARDMAN SCHOOLN/A         67  58  73  SW13    29.79R
#ECHO 8SW       N/A         68  56  65  CALM    29.88S
#I-84 EX 198 DOTN/A         66  57  73  NE13    N/A
#IONE SCHOOL    N/A         60  44  55  CALM    29.87R
#UMATILLA       N/A         67  56  68  W2      29.76R
$$

ORZ507-181210-
NORTHERN FOOTHILLS OF THE BLUES

CITY            SKY/WX      TMP DP  RH  WIND    PRES   REMARKS
PENDLETON AIRPT CLOUDY      66  53  63  SW9     29.89S
#ADAMS 3WNW     N/A         64  54  70  SW3     29.81R
#ATHENA         N/A         64  55  73  CALM    29.85S
#CAYUSE         N/A         65  55  70  SW2     29.83R
#HELIX SCHOOL   N/A         63  54  72  N7      29.81S
#HELIX 3N       N/A         62  54  75  S15     29.91S
#HOLDMAN 6E     N/A         63  55  75  S12G25  29.62S
#M-FREEWATER 5SEN/A         67  55  65  W1      29.88R
#PENDLETON DNTN N/A         68  50  53  CALM    29.87S
#PDT AQUATIC CTRN/A         66  51  58  SW2     29.91S
#PDT SUNRIDGE   N/A         67  56  68  S1      29.91R
#PENDLETON 6SE  N/A         66  55  68  SW2     29.79R
#TUTUILLA       N/A         62  52  70  CALM    29.95R
#UMAPINE 2E     N/A         68  57  68  SW1     29.82R

$$

ORZ508-181210-
SOUTHERN FOOTHILLS OF THE BLUES

CITY            SKY/WX      TMP DP  RH  WIND    PRES   REMARKS
#AJAX           N/A         66  53  63  CALM    30.09R
#CONDON 5W      N/A         56  52  86  CALM    29.94S
#HEPPNER EOC    N/A         63  53  70  W1      29.79S
#HEPPNER 4NE    N/A         60  53  78  W7      29.83S
#LEXINGTON 2SE  N/A         62  54  75  CALM    29.88R
#OLEX 4N        N/A         64  57  78  W15     29.88S
#RUGGS 2SW      N/A         60  51  72  CALM    29.85S

$$

ORZ502-503-181210-
BLUE MOUNTAINS

CITY            SKY/WX      TMP DP  RH  WIND    PRES   REMARKS
MEACHAM         LGT RAIN    53  48  83  CALM    29.98R
#BATTLE MTN DOT N/A         57  50  77  W2      N/A
#LADD CYN SMT   N/A         54  52  93  W2      N/A
#N POWDER DOT   N/A         57  53  86  N6      N/A
#TOLLGATE       N/A         50  48  93  SW1     30.03S
#TROY SCHOOL    N/A         62  53  72  CALM    29.64S
#WESTON 4E      N/A         58  52  80  S3      29.79S
$$

ORZ505-181210-
JOHN DAY BASIN

CITY            SKY/WX      TMP DP  RH  WIND    PRES   REMARKS
JOHN DAY        PTCLDY      59  48  67  SW5     30.00R
#MITCHELL 8NW   N/A         61  50  67  S5      29.85S
#MONUMENT HS    N/A         61  51  70  CALM    29.90R
$$

ORZ506-181210-
OCHOCO AND JOHN DAY HIGHLANDS

CITY            SKY/WX      TMP DP  RH  WIND    PRES   REMARKS
#HORSE RIDGE DO N/A         56  48  74  CALM    N/A
#PAULINA ODOT   N/A         57  51  80  W3      N/A
#PRAIRIE CITY   N/A         57  50  77  CALM    30.09S
#SENECA 9NW     N/A         46  42  86  CALM    29.82R
$$

ORZ049-181210-
GRANDE RONDE VALLEY

CITY            SKY/WX      TMP DP  RH  WIND    PRES   REMARKS
LA GRANDE       PTCLDY      53  49  86  VRB3    29.95R
#COVE SCHOOL    N/A         60  53  78  CALM    29.96S
#COVE 6NW       N/A         59  53  80  CALM    29.83S
#ELGIN 1E       N/A         60  49  67  CALM    N/A
#IMBLER SCHOOL  N/A         57  51  80  CALM    29.90S
#ISLAND CITY 4N N/A         60  55  84  CALM    30.00R
#LADD CYN DOT   N/A         61  55  81  SE3     N/A
#UNION 1S       N/A         61  53  75  CALM    29.81R
$$

ORZ050-181210-
WALLOWA COUNTY

CITY            SKY/WX      TMP DP  RH  WIND    PRES   REMARKS
#IMNAHA 10S     N/A         56  48  74  SW6     29.93R
#JOSEPH 3N      N/A         51  45  80  CALM    30.00R
#LOSTINE        N/A         61  52  72  NW1     29.62R
#LOSTINE 3SE    N/A         60  51  72  E1      30.03R
#MT HOWARD 8000 N/A         45  38  76  SW7     30.12F
#PROMISE 1S     N/A         59  51  75  SW9     29.89R
#WALLOWA LAKE   N/A         51  47  86  CALM    30.01S
#WALLOWA SCHOOL N/A         64  52  65  CALM    29.90S



$$



USA.gov is the U.S. government's official web portal to all federal, state and local government web resources and services.